User: anonymous   Login
Location: Unspecified
(0.0000°N, 0.0000°E)
Time: 20:10:34
(UTC+00:00)
Language:

STARLINK-5785 - Orbit

View from above orbital plane
View from above orbital plane
View from above satellite
View from above satellite

Ground track
Ground track

The orbit is defined by the following mean orbital elements,

1 56031U          26145.55734104 +.00000000 +00000-0 +92726-5 0 00006
2 56031  43.0051 330.9249 0001343 264.8059  95.2639 15.27574715    03
Epoch (UTC): 25 May 2026 13:22:34
Eccentricity: 0.0001343
inclination: 43.0051°
perigee height: 482 km
apogee height: 484 km
right ascension of ascending node: 330.9249°
argument of perigee: 264.8059°
revolutions per day: 15.27574715
mean anomaly at epoch: 95.2639°

The dashed part of the orbit path shows where the satellite is in the earth's shadow,  

DLR